QPF
0.13 0.08 0.07 0.05 0.06 0.09 0.16 0.17 0.10 0.08 0.08 0.06 0.03 0.03 0.03 0.04 0.05 0.04 0.05 0.10 0.09 0.05 0.05 0.05 0.06 0.06 0.08 0.08 0.08 0.07 0.10 0.13 0.15 0.16 0.16 0.16 0.13 0.11 0.12 0.14 0.14 0.13 0.13
0.10 0.07 0.07 0.05 0.04 0.04 0.06 0.11 0.08 0.04 0.04 0.04 0.03 0.02 0.02 0.03 0.04 0.05 0.04 0.03 0.04 0.04 0.03 0.03 0.04 0.05 0.05 0.05 0.05 0.05 0.06 0.10 0.12 0.12 0.14 0.15 0.13 0.09 0.09 0.10 0.11 0.13 0.13
0.10 0.09 0.06 0.05 0.04 0.03 0.03 0.03 0.03 0.02 0.02 0.02 0.02 0.02 0.02 0.03 0.05 0.04 0.04 0.03 0.03 0.02 0.02 0.02 0.03 0.04 0.06 0.06 0.05 0.05 0.05 0.08 0.10 0.11 0.12 0.13 0.14 0.13 0.10 0.09 0.10 0.12 0.14
0.09 0.06 0.04 0.04 0.04 0.03 0.03 0.03 0.03 0.02 0.01 0.01 0.01 0.02 0.03 0.04 0.05 0.04 0.04 0.03 0.03 0.03 0.02 0.02 0.03 0.03 0.04 0.05 0.05 0.05 0.05 0.07 0.11 0.12 0.11 0.12 0.15 0.15 0.11 0.10 0.09 0.10 0.13
0.07 0.05 0.04 0.03 0.02 0.02 0.03 0.03 0.02 0.01 0.01 0.00 0.01 0.01 0.02 0.03 0.03 0.04 0.04 0.03 0.03 0.03 0.02 0.02 0.02 0.03 0.03 0.04 0.05 0.04 0.04 0.04 0.08 0.10 0.10 0.11 0.14 0.11 0.08 0.06 0.06 0.08 0.10
0.05 0.04 0.03 0.02 0.02 0.02 0.02 0.02 0.02 0.01 0.01 0.01 0.01 0.01 0.02 0.02 0.03 0.04 0.03 0.02 0.02 0.02 0.01 0.01 0.01 0.01 0.02 0.02 0.04 0.05 0.04 0.03 0.05 0.08 0.07 0.07 0.09 0.10 0.09 0.08 0.07 0.09 0.09
0.07 0.03 0.02 0.01 0.01 0.01 0.01 0.01 0.02 0.01 0.02 0.02 0.02 0.02 0.02 0.02 0.03 0.03 0.02 0.02 0.01 0.01 0.02 0.01 0.01 0.02 0.04 0.05 0.04 0.03 0.03 0.02 0.03 0.07 0.07 0.06 0.07 0.08 0.10 0.09 0.09 0.09 0.10
0.09 0.04 0.02 0.01 0.01 0.01 0.02 0.02 0.02 0.03 0.03 0.03 0.03 0.02 0.02 0.03 0.04 0.03 0.03 0.02 0.02 0.02 0.02 0.01 0.01 0.02 0.05 0.06 0.05 0.05 0.05 0.04 0.03 0.05 0.06 0.07 0.07 0.07 0.08 0.09 0.10 0.11 0.12
0.09 0.05 0.03 0.01 0.01 0.01 0.02 0.02 0.03 0.03 0.04 0.03 0.03 0.03 0.03 0.03 0.05 0.04 0.02 0.02 0.02 0.02 0.01 0.01 0.01 0.01 0.03 0.03 0.03 0.06 0.08 0.05 0.03 0.04 0.05 0.06 0.06 0.08 0.08 0.08 0.09 0.10 0.11
0.04 0.03 0.02 0.01 0.01 0.01 0.02 0.02 0.02 0.03 0.05 0.04 0.03 0.02 0.02 0.02 0.02 0.02 0.02 0.02 0.02 0.01 0.01 0.01 0.01 0.01 0.03 0.02 0.02 0.05 0.10 0.09 0.04 0.04 0.04 0.04 0.05 0.06 0.09 0.10 0.10 0.10 0.09
0.02 0.01 0.01 0.01 0.01 0.01 0.01 0.02 0.02 0.02 0.03 0.03 0.03 0.02 0.02 0.01 0.01 0.01 0.01 0.02 0.02 0.01 0.01 0.01 0.01 0.01 0.02 0.03 0.04 0.06 0.08 0.14 0.10 0.08 0.06 0.05 0.05 0.05 0.07 0.09 0.09 0.10 0.08
0.02 0.02 0.01 0.01 0.01 0.00 0.01 0.01 0.01 0.02 0.02 0.02 0.02 0.02 0.01 0.01 0.01 0.00 0.01 0.01 0.01 0.02 0.02 0.02 0.02 0.02 0.02 0.02 0.03 0.06 0.08 0.11 0.12 0.11 0.09 0.07 0.07 0.07 0.08 0.08 0.08 0.09 0.09
0.02 0.02 0.01 0.01 0.00 0.00 0.00 0.00 0.00 0.01 0.01 0.01 0.01 0.01 0.01 0.01 0.01 0.01 0.01 0.01 0.02 0.02 0.03 0.03 0.02 0.01 0.01 0.01 0.01 0.02 0.04 0.06 0.08 0.09 0.10 0.09 0.07 0.06 0.07 0.08 0.07 0.07 0.08
0.03 0.02 0.01 0.00 0.00 0.00 0.00 0.00 0.00 0.01 0.01 0.01 0.01 0.01 0.01 0.01 0.01 0.01 0.01 0.01 0.02 0.02 0.03 0.02 0.01 0.01 0.01 0.01 0.01 0.01 0.02 0.03 0.03 0.04 0.04 0.06 0.06 0.05 0.07 0.08 0.06 0.05 0.06
0.03 0.02 0.01 0.01 0.00 0.00 0.00 0.00 0.00 0.01 0.01 0.01 0.01 0.01 0.01 0.02 0.02 0.02 0.02 0.02 0.02 0.02 0.01 0.01 0.01 0.01 0.01 0.01 0.01 0.01 0.01 0.02 0.02 0.02 0.02 0.03 0.05 0.06 0.07 0.09 0.07 0.05 0.05
0.05 0.02 0.02 0.01 0.01 0.00 0.01 0.01 0.01 0.01 0.00 0.00 0.01 0.01 0.01 0.01 0.02 0.02 0.02 0.02 0.02 0.02 0.01 0.01 0.01 0.00 0.01 0.01 0.01 0.01 0.01 0.01 0.02 0.02 0.02 0.02 0.03 0.04 0.05 0.07 0.07 0.06 0.05
0.04 0.03 0.03 0.02 0.01 0.01 0.00 0.00 0.01 0.01 0.00 0.00 0.01 0.01 0.01 0.01 0.01 0.02 0.02 0.02 0.02 0.02 0.02 0.01 0.01 0.01 0.01 0.01 0.02 0.02 0.02 0.02 0.02 0.02 0.02 0.02 0.03 0.03 0.03 0.04 0.05 0.05 0.04
0.05 0.06 0.05 0.03 0.02 0.01 0.01 0.01 0.00 0.00 0.00 0.00 0.01 0.01 0.01 0.01 0.01 0.02 0.04 0.03 0.03 0.02 0.02 0.02 0.02 0.02 0.02 0.02 0.02 0.02 0.02 0.02 0.02 0.02 0.02 0.02 0.02 0.03 0.03 0.02 0.02 0.02 0.02
0.05 0.05 0.05 0.03 0.02 0.02 0.01 0.01 0.01 0.01 0.01 0.01 0.01 0.01 0.01 0.01 0.01 0.02 0.04 0.05 0.04 0.04 0.04 0.03 0.02 0.02 0.03 0.03 0.02 0.01 0.01 0.02 0.02 0.02 0.02 0.02 0.02 0.02 0.02 0.01 0.01 0.01 0.01
0.04 0.05 0.04 0.03 0.03 0.02 0.01 0.01 0.01 0.01 0.01 0.01 0.01 0.01 0.01 0.01 0.01 0.01 0.02 0.03 0.04 0.03 0.03 0.03 0.03 0.02 0.03 0.03 0.02 0.01 0.01 0.01 0.01 0.01 0.01 0.01 0.01 0.01 0.01 0.01 0.01 0.01 0.01
0.03 0.03 0.03 0.03 0.03 0.02 0.01 0.01 0.01 0.01 0.01 0.01 0.01 0.01 0.01 0.01 0.01 0.01 0.01 0.01 0.02 0.02 0.02 0.03 0.03 0.03 0.03 0.02 0.01 0.01 0.00 0.00 0.00 0.00 0.00 0.00 0.00 0.00 0.00 0.00 0.00 0.00 0.00
0.02 0.02 0.02 0.02 0.02 0.02 0.01 0.01 0.01 0.00 0.00 0.00 0.01 0.01 0.01 0.01 0.01 0.01 0.01 0.01 0.01 0.01 0.01 0.02 0.02 0.03 0.02 0.01 0.00 0.00 0.00 0.00 0.00 0.00 0.00 0.00 0.00 0.00 0.00 0.00 0.00 0.00 0.00
0.01 0.01 0.01 0.01 0.01 0.01 0.01 0.01 0.01 0.00 0.01 0.01 0.01 0.01 0.01 0.01 0.01 0.01 0.01 0.01 0.01 0.01 0.01 0.01 0.02 0.02 0.01 0.01 0.01 0.00 0.00 0.00 0.00 0.00 0.00 0.00 0.00 0.00 0.00 0.00 0.01 0.01 0.01
0.00 0.01 0.01 0.01 0.01 0.01 0.01 0.01 0.01 0.01 0.01 0.01 0.01 0.01 0.01 0.00 0.00 0.00 0.00 0.00 0.00 0.00 0.01 0.01 0.01 0.01 0.01 0.00 0.00 0.00 0.00 0.00 0.00 0.00 0.00 0.00 0.00 0.00 0.00 0.00 0.01 0.01 0.01
0.01 0.01 0.01 0.01 0.01 0.01 0.01 0.01 0.00 0.00 0.00 0.00 0.00 0.01 0.00 0.00 0.00 0.00 0.00 0.00 0.00 0.00 0.01 0.00 0.00 0.00 0.01 0.00 0.00 0.00 0.00 0.00 0.00 0.00 0.00 0.00 0.00 0.00 0.00 0.00 0.01 0.01 0.01
0.01 0.01 0.01 0.01 0.00 0.00 0.00 0.00 0.00 0.00 0.00 0.00 0.00 0.00 0.00 0.00 0.00 0.00 0.00 0.00 0.00 0.00 0.00 0.00 0.00 0.00 0.00 0.00 0.00 0.00 0.00 0.00 0.00 0.00 0.00 0.00 0.00 0.00 0.00 0.00 0.01 0.01 0.01
MSLP
1016.89 1017.24 1017.68 1018.10 1018.43 1018.62 1018.64 1018.49 1018.21 1017.86 1017.49 1017.15 1016.86 1016.62 1016.42 1016.22 1016.02 1015.80 1015.57 1015.35 1015.18 1015.09 1015.10 1015.23 1015.45 1015.75 1016.09 1016.43 1016.74 1017.01 1017.24 1017.44 1017.62 1017.81 1018.00 1018.18 1018.34 1018.44 1018.46 1018.39 1018.23 1018.00 1017.73
1017.67 1018.10 1018.56 1018.97 1019.25 1019.35 1019.27 1019.03 1018.68 1018.30 1017.94 1017.64 1017.40 1017.21 1017.04 1016.86 1016.62 1016.34 1016.01 1015.68 1015.39 1015.18 1015.09 1015.13 1015.29 1015.53 1015.82 1016.12 1016.40 1016.65 1016.86 1017.05 1017.26 1017.48 1017.73 1017.99 1018.23 1018.42 1018.52 1018.51 1018.39 1018.17 1017.89
1018.45 1018.94 1019.43 1019.82 1020.04 1020.07 1019.91 1019.60 1019.22 1018.83 1018.50 1018.25 1018.07 1017.94 1017.81 1017.64 1017.38 1017.03 1016.62 1016.19 1015.79 1015.48 1015.28 1015.23 1015.30 1015.47 1015.69 1015.93 1016.14 1016.34 1016.51 1016.69 1016.89 1017.14 1017.44 1017.77 1018.10 1018.38 1018.58 1018.66 1018.60 1018.42 1018.17
1019.11 1019.64 1020.15 1020.53 1020.73 1020.71 1020.51 1020.18 1019.79 1019.42 1019.13 1018.93 1018.82 1018.74 1018.64 1018.47 1018.19 1017.80 1017.33 1016.81 1016.32 1015.91 1015.63 1015.48 1015.47 1015.55 1015.69 1015.85 1015.99 1016.12 1016.24 1016.38 1016.58 1016.83 1017.16 1017.55 1017.95 1018.33 1018.61 1018.78 1018.80 1018.70 1018.50
1019.57 1020.14 1020.68 1021.07 1021.27 1021.26 1021.06 1020.74 1020.37 1020.04 1019.79 1019.64 1019.57 1019.52 1019.44 1019.27 1018.97 1018.54 1018.01 1017.44 1016.89 1016.41 1016.05 1015.83 1015.74 1015.74 1015.79 1015.87 1015.94 1016.00 1016.06 1016.16 1016.32 1016.57 1016.91 1017.32 1017.77 1018.21 1018.57 1018.83 1018.94 1018.93 1018.80
1019.82 1020.44 1021.01 1021.45 1021.69 1021.71 1021.55 1021.27 1020.95 1020.66 1020.45 1020.33 1020.27 1020.23 1020.14 1019.95 1019.62 1019.16 1018.60 1017.99 1017.40 1016.88 1016.47 1016.20 1016.04 1015.98 1015.96 1015.96 1015.96 1015.95 1015.95 1015.99 1016.11 1016.33 1016.66 1017.07 1017.54 1018.01 1018.43 1018.75 1018.95 1019.04 1019.02
1019.91 1020.58 1021.22 1021.72 1022.02 1022.12 1022.02 1021.80 1021.53 1021.28 1021.09 1020.97 1020.89 1020.82 1020.69 1020.46 1020.10 1019.62 1019.04 1018.41 1017.81 1017.27 1016.85 1016.54 1016.35 1016.23 1016.16 1016.09 1016.02 1015.95 1015.89 1015.88 1015.95 1016.12 1016.41 1016.79 1017.23 1017.70 1018.15 1018.52 1018.81 1018.99 1019.10
1019.93 1020.67 1021.38 1021.96 1022.35 1022.52 1022.50 1022.35 1022.12 1021.89 1021.69 1021.54 1021.42 1021.29 1021.10 1020.82 1020.42 1019.91 1019.33 1018.71 1018.11 1017.59 1017.16 1016.84 1016.62 1016.47 1016.35 1016.24 1016.11 1015.98 1015.87 1015.81 1015.82 1015.93 1016.15 1016.48 1016.88 1017.32 1017.76 1018.16 1018.51 1018.80 1019.05
1019.99 1020.79 1021.58 1022.23 1022.70 1022.95 1023.00 1022.90 1022.70 1022.47 1022.25 1022.04 1021.85 1021.65 1021.39 1021.05 1020.61 1020.09 1019.51 1018.92 1018.35 1017.85 1017.44 1017.13 1016.89 1016.71 1016.55 1016.39 1016.22 1016.05 1015.89 1015.77 1015.73 1015.77 1015.93 1016.18 1016.51 1016.90 1017.32 1017.73 1018.14 1018.52 1018.89
1020.15 1021.02 1021.86 1022.58 1023.10 1023.41 1023.51 1023.44 1023.25 1023.00 1022.74 1022.47 1022.21 1021.92 1021.59 1021.20 1020.74 1020.22 1019.67 1019.11 1018.58 1018.12 1017.73 1017.43 1017.18 1016.98 1016.79 1016.59 1016.39 1016.18 1015.98 1015.82 1015.72 1015.71 1015.79 1015.96 1016.22 1016.55 1016.93 1017.35 1017.78 1018.24 1018.72
1020.46 1021.37 1022.24 1022.98 1023.53 1023.86 1023.98 1023.92 1023.73 1023.46 1023.15 1022.83 1022.50 1022.15 1021.77 1021.35 1020.88 1020.38 1019.87 1019.36 1018.88 1018.46 1018.10 1017.80 1017.55 1017.32 1017.10 1016.88 1016.64 1016.40 1016.18 1015.99 1015.85 1015.79 1015.81 1015.92 1016.11 1016.38 1016.71 1017.11 1017.56 1018.07 1018.63
1020.92 1021.83 1022.69 1023.40 1023.93 1024.25 1024.36 1024.29 1024.09 1023.80 1023.47 1023.11 1022.74 1022.36 1021.96 1021.53 1021.08 1020.62 1020.16 1019.70 1019.29 1018.91 1018.58 1018.29 1018.03 1017.78 1017.53 1017.28 1017.02 1016.77 1016.53 1016.32 1016.16 1016.07 1016.06 1016.11 1016.25 1016.46 1016.75 1017.11 1017.55 1018.07 1018.68
1021.48 1022.34 1023.13 1023.78 1024.25 1024.52 1024.61 1024.53 1024.32 1024.04 1023.70 1023.33 1022.95 1022.57 1022.18 1021.78 1021.37 1020.96 1020.56 1020.17 1019.80 1019.47 1019.16 1018.88 1018.61 1018.35 1018.08 1017.81 1017.54 1017.28 1017.04 1016.84 1016.68 1016.58 1016.54 1016.57 1016.66 1016.82 1017.06 1017.38 1017.80 1018.30 1018.90
1022.07 1022.84 1023.52 1024.07 1024.45 1024.67 1024.72 1024.63 1024.43 1024.16 1023.84 1023.51 1023.16 1022.80 1022.45 1022.09 1021.74 1021.39 1021.05 1020.72 1020.41 1020.11 1019.83 1019.56 1019.28 1019.01 1018.73 1018.46 1018.19 1017.94 1017.71 1017.52 1017.38 1017.29 1017.25 1017.26 1017.32 1017.45 1017.64 1017.91 1018.27 1018.73 1019.28
1022.61 1023.26 1023.81 1024.24 1024.53 1024.68 1024.70 1024.61 1024.44 1024.21 1023.94 1023.65 1023.36 1023.05 1022.75 1022.45 1022.15 1021.86 1021.58 1021.31 1021.04 1020.78 1020.52 1020.26 1019.99 1019.72 1019.45 1019.18 1018.92 1018.69 1018.49 1018.33 1018.22 1018.14 1018.11 1018.12 1018.16 1018.25 1018.40 1018.62 1018.91 1019.29 1019.76
1023.07 1023.58 1023.99 1024.30 1024.50 1024.60 1024.61 1024.54 1024.41 1024.23 1024.03 1023.80 1023.57 1023.32 1023.08 1022.83 1022.58 1022.34 1022.10 1021.87 1021.64 1021.41 1021.18 1020.94 1020.68 1020.42 1020.17 1019.92 1019.69 1019.49 1019.32 1019.19 1019.11 1019.06 1019.03 1019.04 1019.07 1019.14 1019.24 1019.40 1019.62 1019.92 1020.28
1023.42 1023.80 1024.09 1024.30 1024.43 1024.50 1024.50 1024.46 1024.38 1024.27 1024.13 1023.97 1023.80 1023.60 1023.40 1023.19 1022.98 1022.77 1022.57 1022.37 1022.17 1021.97 1021.76 1021.54 1021.32 1021.08 1020.85 1020.63 1020.43 1020.26 1020.13 1020.04 1019.98 1019.94 1019.93 1019.94 1019.96 1019.99 1020.06 1020.16 1020.32 1020.52 1020.79
1023.66 1023.93 1024.14 1024.28 1024.37 1024.42 1024.44 1024.43 1024.41 1024.35 1024.27 1024.17 1024.04 1023.88 1023.71 1023.52 1023.33 1023.15 1022.97 1022.79 1022.62 1022.44 1022.26 1022.08 1021.88 1021.68 1021.48 1021.29 1021.13 1020.99 1020.88 1020.81 1020.77 1020.74 1020.73 1020.73 1020.73 1020.75 1020.78 1020.84 1020.93 1021.07 1021.25
1023.84 1024.04 1024.18 1024.28 1024.35 1024.41 1024.45 1024.48 1024.49 1024.49 1024.45 1024.38 1024.27 1024.14 1023.98 1023.81 1023.63 1023.46 1023.30 1023.14 1022.99 1022.85 1022.70 1022.55 1022.39 1022.22 1022.06 1021.90 1021.77 1021.65 1021.56 1021.50 1021.45 1021.43 1021.41 1021.39 1021.38 1021.37 1021.38 1021.40 1021.46 1021.54 1021.65
1023.98 1024.14 1024.26 1024.34 1024.41 1024.48 1024.54 1024.59 1024.63 1024.65 1024.63 1024.58 1024.48 1024.36 1024.21 1024.05 1023.89 1023.73 1023.59 1023.46 1023.34 1023.23 1023.12 1023.00 1022.88 1022.75 1022.61 1022.48 1022.36 1022.26 1022.17 1022.10 1022.05 1022.01 1021.98 1021.94 1021.91 1021.89 1021.87 1021.88 1021.90 1021.96 1022.03
1024.13 1024.27 1024.38 1024.46 1024.53 1024.60 1024.67 1024.73 1024.78 1024.80 1024.79 1024.74 1024.65 1024.53 1024.40 1024.26 1024.12 1023.99 1023.88 1023.79 1023.71 1023.64 1023.56 1023.48 1023.39 1023.28 1023.17 1023.05 1022.94 1022.83 1022.74 1022.66 1022.59 1022.52 1022.47 1022.41 1022.37 1022.33 1022.30 1022.30 1022.31 1022.35 1022.41
1024.29 1024.43 1024.53 1024.61 1024.68 1024.74 1024.80 1024.86 1024.89 1024.90 1024.88 1024.83 1024.76 1024.66 1024.55 1024.44 1024.35 1024.27 1024.21 1024.16 1024.13 1024.09 1024.05 1024.00 1023.93 1023.84 1023.73 1023.62 1023.50 1023.38 1023.27 1023.17 1023.08 1023.00 1022.92 1022.85 1022.79 1022.74 1022.71 1022.70 1022.71 1022.75 1022.80
1024.44 1024.59 1024.69 1024.76 1024.81 1024.86 1024.90 1024.93 1024.94 1024.94 1024.91 1024.86 1024.80 1024.74 1024.67 1024.62 1024.58 1024.57 1024.57 1024.58 1024.59 1024.59 1024.58 1024.54 1024.48 1024.39 1024.29 1024.16 1024.03 1023.90 1023.78 1023.66 1023.55 1023.45 1023.35 1023.27 1023.20 1023.15 1023.11 1023.10 1023.11 1023.15 1023.20
1024.58 1024.72 1024.81 1024.86 1024.90 1024.92 1024.93 1024.93 1024.92 1024.90 1024.87 1024.84 1024.81 1024.79 1024.78 1024.79 1024.83 1024.88 1024.94 1025.01 1025.06 1025.10 1025.10 1025.07 1025.01 1024.91 1024.79 1024.65 1024.51 1024.37 1024.23 1024.10 1023.98 1023.87 1023.77 1023.68 1023.60 1023.54 1023.51 1023.49 1023.50 1023.53 1023.57
1024.65 1024.78 1024.86 1024.90 1024.91 1024.90 1024.89 1024.86 1024.83 1024.80 1024.79 1024.78 1024.79 1024.82 1024.88 1024.96 1025.07 1025.19 1025.30 1025.41 1025.49 1025.54 1025.55 1025.52 1025.44 1025.33 1025.19 1025.04 1024.89 1024.73 1024.59 1024.46 1024.34 1024.23 1024.13 1024.04 1023.96 1023.90 1023.86 1023.83 1023.83 1023.85 1023.88
1024.63 1024.75 1024.82 1024.85 1024.85 1024.82 1024.78 1024.75 1024.71 1024.69 1024.69 1024.72 1024.77 1024.86 1024.98 1025.12 1025.28 1025.44 1025.59 1025.72 1025.82 1025.86 1025.86 1025.81 1025.72 1025.59 1025.44 1025.28 1025.13 1024.97 1024.84 1024.71 1024.60 1024.50 1024.41 1024.32 1024.25 1024.18 1024.12 1024.08 1024.06 1024.06 1024.07
Thickness
5705 5705 5702 5699 5697 5695 5695 5694 5693 5692 5693 5694 5693 5692 5689 5688 5687 5687 5687 5688 5689 5689 5689 5688 5688 5689 5688 5688 5689 5690 5690 5689 5690 5688 5687 5688 5689 5689 5690 5691 5692 5693 5694
5699 5697 5694 5692 5689 5687 5687 5685 5685 5685 5686 5686 5686 5685 5683 5681 5680 5679 5679 5679 5680 5681 5682 5681 5680 5681 5681 5681 5682 5682 5682 5683 5683 5681 5678 5677 5678 5682 5683 5684 5685 5686 5688
5692 5690 5687 5684 5681 5679 5678 5678 5677 5677 5677 5678 5678 5677 5675 5674 5672 5670 5669 5670 5671 5672 5672 5673 5673 5673 5673 5673 5674 5675 5674 5674 5675 5676 5674 5670 5669 5671 5673 5674 5676 5677 5679
5686 5682 5679 5675 5673 5671 5670 5669 5668 5667 5668 5668 5667 5666 5664 5662 5661 5660 5660 5660 5661 5662 5662 5663 5664 5664 5664 5665 5666 5668 5668 5668 5668 5669 5670 5670 5669 5665 5663 5664 5666 5668 5669
5679 5675 5671 5668 5666 5664 5662 5660 5659 5659 5658 5658 5657 5656 5654 5652 5651 5651 5650 5650 5650 5651 5653 5654 5654 5655 5656 5657 5659 5660 5661 5662 5662 5662 5663 5663 5663 5663 5659 5656 5656 5657 5658
5671 5667 5664 5661 5658 5656 5653 5650 5649 5648 5648 5647 5646 5644 5643 5642 5641 5640 5639 5639 5640 5641 5642 5644 5644 5645 5647 5649 5651 5652 5654 5654 5656 5656 5657 5657 5657 5656 5655 5652 5649 5648 5647
5663 5659 5656 5653 5650 5647 5643 5640 5639 5638 5637 5636 5634 5633 5632 5631 5630 5629 5629 5629 5629 5630 5631 5633 5635 5636 5638 5640 5642 5644 5646 5647 5648 5649 5650 5651 5652 5652 5651 5648 5644 5640 5638
5655 5651 5647 5645 5642 5638 5634 5632 5630 5628 5627 5625 5623 5622 5622 5621 5619 5619 5619 5619 5619 5620 5622 5623 5625 5626 5628 5630 5633 5635 5636 5638 5640 5641 5643 5644 5645 5646 5646 5643 5639 5634 5630
5648 5643 5639 5637 5633 5628 5625 5622 5620 5618 5616 5614 5612 5611 5611 5609 5608 5608 5609 5610 5610 5611 5612 5613 5614 5616 5618 5620 5622 5624 5626 5629 5630 5632 5634 5636 5637 5638 5639 5638 5636 5633 5627
5642 5637 5633 5629 5624 5619 5616 5613 5610 5607 5605 5603 5602 5601 5600 5599 5599 5599 5599 5600 5600 5601 5601 5602 5604 5605 5607 5609 5611 5613 5615 5618 5620 5622 5625 5626 5628 5629 5630 5630 5629 5628 5625
5636 5630 5624 5620 5615 5610 5607 5603 5600 5597 5595 5593 5591 5590 5589 5589 5589 5590 5589 5590 5590 5590 5591 5591 5592 5594 5596 5597 5599 5601 5604 5606 5608 5611 5614 5615 5617 5619 5619 5619 5619 5617 5616
5631 5624 5618 5612 5607 5602 5599 5595 5591 5589 5586 5584 5582 5581 5580 5579 5579 5579 5579 5579 5579 5579 5580 5580 5582 5583 5584 5586 5588 5590 5592 5594 5596 5599 5601 5604 5606 5608 5608 5609 5608 5606 5606
5624 5617 5612 5606 5600 5595 5591 5587 5584 5581 5579 5577 5574 5572 5571 5570 5569 5569 5569 5569 5568 5568 5569 5569 5570 5572 5573 5575 5577 5578 5580 5582 5584 5587 5590 5592 5595 5597 5597 5598 5597 5596 5595
5617 5610 5603 5598 5593 5589 5585 5581 5578 5575 5572 5570 5567 5565 5562 5561 5560 5560 5560 5559 5558 5558 5558 5558 5559 5561 5562 5564 5566 5568 5569 5572 5574 5576 5579 5581 5584 5586 5587 5587 5586 5586 5584
5612 5605 5597 5591 5586 5582 5579 5576 5572 5569 5566 5563 5560 5557 5555 5554 5552 5552 5551 5550 5549 5547 5547 5548 5549 5551 5552 5553 5556 5558 5560 5561 5563 5565 5568 5571 5573 5575 5577 5577 5575 5575 5573
5607 5600 5593 5587 5582 5578 5573 5570 5566 5563 5559 5556 5553 5551 5548 5546 5545 5544 5542 5541 5539 5538 5538 5538 5539 5540 5541 5543 5546 5548 5549 5551 5552 5554 5557 5560 5561 5563 5565 5566 5566 5566 5565
5602 5595 5588 5582 5576 5572 5568 5564 5560 5557 5553 5550 5548 5545 5542 5540 5538 5537 5535 5533 5531 5530 5530 5529 5530 5530 5532 5535 5537 5539 5540 5541 5542 5544 5546 5549 5550 5552 5554 5554 5554 5554 5554
5597 5589 5582 5576 5570 5566 5562 5558 5555 5551 5548 5545 5542 5539 5536 5534 5532 5530 5528 5526 5525 5524 5523 5522 5523 5523 5525 5527 5529 5530 5531 5532 5533 5535 5537 5538 5539 5542 5544 5544 5544 5544 5544
5590 5583 5577 5571 5565 5561 5557 5553 5549 5546 5543 5539 5536 5534 5532 5529 5527 5525 5523 5522 5520 5519 5518 5517 5517 5518 5518 5521 5523 5524 5524 5524 5525 5527 5528 5530 5531 5532 5535 5536 5535 5534 5534
5584 5577 5571 5566 5560 5556 5552 5548 5543 5540 5537 5535 5533 5530 5528 5526 5523 5521 5520 5518 5517 5515 5515 5513 5513 5513 5514 5516 5518 5519 5519 5518 5518 5519 5521 5523 5524 5525 5527 5527 5527 5525 5525
5578 5572 5567 5561 5556 5551 5547 5543 5539 5536 5534 5532 5530 5527 5525 5522 5520 5518 5517 5516 5514 5512 5511 5510 5509 5510 5511 5512 5513 5514 5514 5513 5513 5514 5515 5517 5519 5521 5522 5522 5521 5521 5521
5572 5567 5561 5555 5551 5548 5543 5539 5536 5534 5532 5529 5526 5524 5522 5520 5519 5516 5515 5514 5512 5510 5508 5507 5507 5507 5508 5509 5510 5511 5511 5512 5511 5511 5512 5515 5517 5518 5519 5519 5519 5519 5518
5568 5563 5557 5552 5547 5544 5541 5537 5534 5532 5529 5526 5523 5521 5520 5518 5516 5514 5513 5512 5510 5509 5507 5505 5504 5504 5506 5507 5509 5510 5510 5511 5510 5511 5513 5515 5516 5517 5517 5518 5518 5517 5516
5564 5559 5554 5549 5545 5542 5539 5536 5534 5531 5528 5524 5521 5520 5517 5515 5514 5513 5512 5511 5509 5508 5508 5506 5505 5505 5505 5506 5508 5508 5510 5511 5511 5512 5513 5515 5516 5517 5517 5517 5517 5516 5515
5562 5557 5553 5548 5544 5541 5538 5536 5533 5530 5527 5524 5522 5519 5517 5515 5513 5512 5510 5510 5510 5510 5509 5508 5507 5506 5506 5508 5509 5509 5510 5511 5511 5512 5513 5514 5514 5515 5515 5516 5516 5517 5516
5562 5557 5552 5548 5544 5541 5538 5536 5534 5531 5527 5524 5522 5519 5517 5515 5514 5512 5511 5512 5512 5513 5513 5513 5512 5512 5512 5512 5512 5513 5514 5514 5515 5514 5513 5513 5514 5515 5516 5516 5517 5517 5517